Weather History for Orange City, IA

Change the Weather History Date:

Saturday, January 19, 2013

  Actual Average Record
Temperature  
Mean Temperature 28 °F -  
Max Temperature 46 °F 25 °F 55 °F (2014)
Min Temperature 10 °F 9 °F -9 °F (2001)
Degree Days  
Heating Degree Days 37    
Moisture  
Dew Point 21 °F    
Average Humidity 67    
Maximum Humidity 93    
Minimum Humidity 44    
Precipitation  
Precipitation 0.00 in - - ()
Sea Level Pressure  
Sea Level Pressure 29.99 in    
Wind  
Wind Speed 12 mph (NW)    
Max Wind Speed 33 mph    
Max Gust Speed 45 mph    
Visibility 10 miles    
Events      
Averages and records for this station are not official NWS values.
T = Trace of Precipitation, MM = Missing Value Source: NWS Daily Summary

Daily Weather History Graph

Daily Weather History Graph

Search for Another Location

Airport:

Trip Planner

Search our weather history database for the weather conditions in past years. The results will help you decide how hot, cold, wet, or windy it might be!

Date:

Astronomy

Jan. 19, 2013 Rise Set
Actual Time 7:50 AM CST 5:20 PM CST
Civil Twilight 7:19 AM CST 5:51 PM CST
Nautical Twilight 6:44 AM CST 6:26 PM CST
Astronomical Twilight 6:10 AM CST 7:00 PM CST
Moon 11:48 AM CST (1/19) 1:23 AM CST (1/19)
Length of Visible Light 10h 32m
Length of Day
9h 30m
First Quarter, 57% of the Moon is Illuminated
Jan 19
First Quarter
Jan 26
Full
Feb 3
Last Quarter
Feb 10
New
Feb 17
First Quarter

Hourly Weather History & Observations

Time (CST) Temp. Windchill Dew Point Humidity Pressure Visibility Wind Dir Wind Speed Gust Speed Precip Events Conditions
12:15 AM 33.8 °F 30.8 °F 28.4 °F 81% 29.81 in 10.0 mi SSW 3.5 mph - N/A   Clear
12:35 AM 32.0 °F 26.4 °F 28.4 °F 87% 29.80 in 10.0 mi South 5.8 mph - N/A   Clear
12:55 AM 32.0 °F - 28.4 °F 87% 29.80 in 10.0 mi Calm Calm - N/A   Clear
1:15 AM 32.0 °F 27.5 °F 28.4 °F 87% 29.79 in 10.0 mi South 4.6 mph - N/A   Clear
1:35 AM 32.0 °F 28.7 °F 28.4 °F 87% 29.79 in 10.0 mi SSW 3.5 mph - N/A   Clear
1:55 AM 30.2 °F 24.3 °F 28.4 °F 93% 29.79 in 10.0 mi SSW 5.8 mph - N/A   Clear
2:15 AM 32.0 °F 28.7 °F 28.4 °F 87% 29.79 in 10.0 mi SW 3.5 mph - N/A   Clear
2:35 AM 33.8 °F 26.4 °F 28.4 °F 81% 29.78 in 10.0 mi WSW 9.2 mph - N/A   Scattered Clouds
2:55 AM 35.6 °F 28.6 °F 28.4 °F 75% 29.78 in 10.0 mi WSW 9.2 mph - N/A   Scattered Clouds
3:15 AM 37.4 °F 31.4 °F 28.4 °F 70% 29.78 in 10.0 mi West 8.1 mph - N/A   Mostly Cloudy
3:35 AM 35.6 °F 29.9 °F 28.4 °F 75% 29.78 in 10.0 mi West 6.9 mph - N/A   Scattered Clouds
3:55 AM 35.6 °F 30.7 °F 26.6 °F 70% 29.78 in 10.0 mi West 5.8 mph - N/A   Scattered Clouds
4:15 AM 37.4 °F 31.4 °F 26.6 °F 65% 29.78 in 10.0 mi WSW 8.1 mph - N/A   Clear
4:35 AM 35.6 °F 29.2 °F 28.4 °F 75% 29.78 in 10.0 mi West 8.1 mph - N/A   Clear
4:55 AM 33.8 °F 29.6 °F 26.6 °F 75% 29.79 in 10.0 mi West 4.6 mph - N/A   Clear
5:15 AM 35.6 °F 28.6 °F 26.6 °F 70% 29.78 in 10.0 mi West 9.2 mph - N/A   Clear
5:35 AM 33.8 °F - 26.6 °F 75% 29.79 in 10.0 mi Calm Calm - N/A   Clear
5:55 AM 33.8 °F 27.0 °F 26.6 °F 75% 29.79 in 10.0 mi West 8.1 mph - N/A   Clear
6:55 AM 33.8 °F 26.4 °F 26.6 °F 75% 29.82 in 10.0 mi WNW 9.2 mph - N/A   Clear
7:15 AM 32.0 °F 25.6 °F 26.6 °F 80% 29.82 in 10.0 mi WNW 6.9 mph - N/A   Clear
7:55 AM 30.2 °F 21.9 °F 24.8 °F 80% 29.83 in 10.0 mi NW 9.2 mph - N/A   Clear
8:35 AM 33.8 °F 25.3 °F 26.6 °F 75% 29.85 in 10.0 mi WNW 11.5 mph - N/A   Clear
9:55 AM 39.2 °F 30.2 °F 28.4 °F 65% 29.88 in 10.0 mi WNW 17.3 mph - N/A   Clear
10:15 AM 39.2 °F 29.6 °F 28.4 °F 65% 29.89 in 10.0 mi NW 19.6 mph - N/A   Clear
10:35 AM 41.0 °F 33.5 °F 30.2 °F 65% 29.90 in 10.0 mi NW 13.8 mph 21.9 mph N/A   Clear
11:15 AM 42.8 °F 34.8 °F 30.2 °F 61% 29.92 in 10.0 mi NW 17.3 mph - N/A   Clear
11:35 AM 42.8 °F 35.1 °F 30.2 °F 61% 29.92 in 10.0 mi NW 16.1 mph - N/A   Clear
11:55 AM 44.6 °F 37.2 °F 30.2 °F 57% 29.92 in 10.0 mi NW 17.3 mph - N/A   Clear
12:15 PM 44.6 °F 37.8 °F 32.0 °F 61% 29.92 in 10.0 mi WNW 15.0 mph - N/A   Clear
12:35 PM 44.6 °F 37.2 °F 32.0 °F 61% 29.92 in 10.0 mi NW 17.3 mph 27.6 mph N/A   Clear
12:55 PM 46.4 °F 38.7 °F 33.8 °F 62% 29.93 in 10.0 mi WNW 20.7 mph 24.2 mph N/A   Clear
1:15 PM 46.4 °F 38.5 °F 32.0 °F 57% 29.93 in 10.0 mi NW 21.9 mph 28.8 mph N/A   Clear
1:35 PM 46.4 °F 39.5 °F 30.2 °F 53% 29.96 in 10.0 mi NNW 17.3 mph 28.8 mph N/A   Scattered Clouds
1:55 PM 44.6 °F 36.4 °F 30.2 °F 57% 29.96 in 10.0 mi NW 20.7 mph 35.7 mph N/A   Scattered Clouds
2:15 PM 42.8 °F 34.0 °F 30.2 °F 61% 29.97 in 10.0 mi NW 20.7 mph 31.1 mph N/A   Scattered Clouds
2:35 PM 42.8 °F 33.8 °F 30.2 °F 61% 29.98 in 10.0 mi NW 21.9 mph 35.7 mph N/A   Scattered Clouds
2:55 PM 42.8 °F 33.1 °F 30.2 °F 61% 29.99 in 10.0 mi NW 25.3 mph 38.0 mph N/A   Mostly Cloudy
3:15 PM 42.8 °F 33.5 °F 30.2 °F 61% 30.00 in 10.0 mi NW 23.0 mph 34.5 mph N/A   Mostly Cloudy
3:35 PM 42.8 °F 32.9 °F 30.2 °F 61% 30.01 in 10.0 mi NW 26.5 mph 35.7 mph N/A   Scattered Clouds
3:55 PM 39.2 °F 27.8 °F 30.2 °F 70% 30.02 in 10.0 mi NW 27.6 mph 38.0 mph N/A   Mostly Cloudy
4:15 PM 39.2 °F 28.5 °F 28.4 °F 65% 30.04 in 10.0 mi NW 24.2 mph 40.3 mph N/A   Scattered Clouds
4:35 PM 37.4 °F 26.9 °F 26.6 °F 65% 30.07 in 10.0 mi NNW 20.7 mph 34.5 mph N/A   Mostly Cloudy
4:55 PM 33.8 °F 21.9 °F 24.8 °F 70% 30.09 in 10.0 mi NW 21.9 mph 32.2 mph N/A   Scattered Clouds
5:15 PM 32.0 °F 18.4 °F 21.2 °F 64% 30.10 in 10.0 mi NW 26.5 mph 35.7 mph N/A   Clear
5:35 PM 30.2 °F 14.7 °F 10.4 °F 44% 30.13 in 10.0 mi NW 32.2 mph 41.4 mph N/A   Clear
5:55 PM 26.6 °F 10.8 °F 12.2 °F 55% 30.15 in 10.0 mi NW 27.6 mph 44.9 mph N/A   Clear
6:15 PM 24.8 °F 7.1 °F 6.8 °F 46% 30.15 in 10.0 mi NNW 33.4 mph 42.6 mph N/A   Clear
6:35 PM 23.0 °F 6.3 °F 6.8 °F 50% 30.17 in 10.0 mi NNW 26.5 mph 38.0 mph N/A   Clear
6:55 PM 19.4 °F 0.8 °F 6.8 °F 58% 30.19 in 10.0 mi NNW 28.8 mph 38.0 mph N/A   Clear
7:15 PM 19.4 °F 3.6 °F 6.8 °F 58% 30.21 in 10.0 mi NNW 19.6 mph 36.8 mph N/A   Clear
7:35 PM 17.6 °F 2.7 °F 8.6 °F 68% 30.22 in 10.0 mi NNW 16.1 mph 26.5 mph N/A   Scattered Clouds
7:55 PM 17.6 °F 0.1 °F 8.6 °F 68% 30.22 in 10.0 mi NNW 23.0 mph 33.4 mph N/A   Scattered Clouds
8:15 PM 17.6 °F 1.7 °F 6.8 °F 63% 30.23 in 10.0 mi NNW 18.4 mph 26.5 mph N/A   Scattered Clouds
8:35 PM 15.8 °F -1.9 °F 3.2 °F 58% 30.24 in 10.0 mi NNW 21.9 mph 28.8 mph N/A   Clear
8:55 PM 15.8 °F -0.2 °F 3.2 °F 58% 30.26 in 10.0 mi NNW 17.3 mph 28.8 mph N/A   Clear
9:15 PM 14.0 °F -2.0 °F 3.2 °F 62% 30.26 in 10.0 mi NNW 16.1 mph 28.8 mph N/A   Clear
9:35 PM 12.2 °F -3.1 °F 1.4 °F 62% 30.27 in 10.0 mi NNW 13.8 mph 28.8 mph N/A   Clear
9:55 PM 12.2 °F -3.1 °F 1.4 °F 62% 30.28 in 10.0 mi NNW 13.8 mph 26.5 mph N/A   Clear
10:15 PM 12.2 °F -4.3 °F 1.4 °F 62% 30.28 in 10.0 mi NNW 16.1 mph 24.2 mph N/A   Clear
10:35 PM 12.2 °F -1.8 °F 1.4 °F 62% 30.29 in 10.0 mi NNW 11.5 mph 17.3 mph N/A   Clear
10:55 PM 10.4 °F -5.4 °F -0.4 °F 62% 30.29 in 10.0 mi NNW 13.8 mph 21.9 mph N/A   Clear
11:15 PM 10.4 °F -4.8 °F -0.4 °F 62% 30.30 in 10.0 mi NNW 12.7 mph 20.7 mph N/A   Clear
11:35 PM 10.4 °F -4.8 °F -0.4 °F 62% 30.31 in 10.0 mi NNW 12.7 mph 17.3 mph N/A   Clear
11:55 PM 10.4 °F -4.8 °F -2.2 °F 57% 30.31 in 10.0 mi North 12.7 mph 21.9 mph N/A   Clear